Flag for Canada Weather past 2 weeks in Camrose, Alberta, Canada

Now
39 °F

Passing clouds.


Feels Like: 32 °F
Forecast: 36 / 50 °F
Wind: 13 mph from West

Location: Edmonton International

Current Time: Oct 24, 2014 at 2:40:49 AM

Latest Report: Oct 24, 2014 at 2:00 AM


Visibility: 15 mi

Pressure: 29.70 "Hg

Humidity: 70%

Dew point: 30 °F

Location of CamroseLocation

Historic Weather in Camrose — Graph

°F

Camrose temperature yesterday

Maximum temperature yesterday: 63 °F (at 3:00 PM)
Minimum temperature yesterday: 30 °F (at 7:00 AM)
Average temperature yesterday: 43 °F

Past Weeks' High & Low Weather Summary

 TemperatureHumidityPressure
High72 °F (Oct 20, 2:00 PM)100% (Oct 9, 5:00 AM)30.20 "Hg (Oct 9, 5:00 AM)
Low25 °F (Oct 13, 7:00 AM)25% (Oct 23, 3:00 PM)29.45 "Hg (Oct 23, 12:00 PM)
Average46 °F66%29.77 "Hg
* Reported Oct 9 1:00 AM — Oct 24 1:00 AM, Camrose, Weather by CustomWeather, © 2014

Note: Actual official high and low records may vary slightly from our data, if they occured in-between our weather recording intervals... More about our weather records

Advertising

Camrose weather history for previous 24 hours

 ConditionsComfort  
Time TempWeatherWind HumidityBarometerVisibility
1:00 AM
Oct 24
41 °FPassing clouds.8 mph61%29.67 "Hg15 mi
12:00 AM36 °FPassing clouds.2 mph70%29.67 "Hg15 mi
11:00 PM
Oct 23
32 °FPassing clouds.9 mph69%29.65 "Hg15 mi
10:00 PM30 °FPassing clouds.2 mph69%29.64 "Hg15 mi
9:00 PM30 °FPassing clouds.2 mph69%29.64 "Hg15 mi
8:00 PM39 °FPassing clouds.No wind56%29.61 "Hg15 mi
7:00 PM41 °FPassing clouds.2 mph49%29.59 "Hg15 mi
6:00 PM54 °FPassing clouds.7 mph33%29.55 "Hg15 mi
5:00 PM57 °FPassing clouds.9 mph29%29.52 "Hg15 mi
4:00 PM59 °FScattered clouds.16 mph25%29.51 "Hg15 mi
3:00 PM63 °FScattered clouds.20 mph25%29.47 "Hg15 mi
2:00 PM61 °FPassing clouds.12 mph34%29.46 "Hg15 mi
1:00 PM55 °FPartly sunny.14 mph44%29.46 "Hg15 mi
12:00 PM52 °FBroken clouds.5 mph50%29.45 "Hg15 mi
11:00 AM46 °FPartly sunny.7 mph57%29.46 "Hg15 mi
10:00 AM45 °FPartly sunny.3 mph71%29.46 "Hg15 mi
9:00 AM34 °FPassing clouds.2 mph87%29.46 "Hg15 mi
8:00 AM32 °FPassing clouds.3 mph87%29.47 "Hg15 mi
7:00 AM30 °FPassing clouds.6 mph80%29.48 "Hg15 mi
6:00 AM36 °FPartly cloudy.6 mph81%29.48 "Hg15 mi
5:00 AM37 °FPassing clouds.3 mph81%29.50 "Hg15 mi
4:00 AM36 °FMostly cloudy.7 mph81%29.52 "Hg15 mi
3:00 AM39 °FPartly cloudy.3 mph75%29.52 "Hg15 mi
2:00 AM37 °FPartly cloudy.6 mph75%29.55 "Hg15 mi
Weather by CustomWeather, © 2014

See weather overviewHow to use our weather pages